Time,TemperatureF,DewpointF,PressureIn,WindDirection,WindDirectionDegrees,WindSpeedMPH,WindSpeedGustMPH,Humidity,HourlyPrecipIn,Conditions,Clouds,dailyrainin,SoftwareType,DateUTC
2013-09-04 00:00:00,3.7,-8.4,29.26,North,0,0.0,0.0,56,0.00,,---,0.00,VWS V14.01,2013-09-04 04:00:00,
2013-09-04 00:01:00,3.7,-8.4,29.26,North,0,0.0,0.0,56,0.00,,---,0.00,VWS V14.01,2013-09-04 04:01:00,
2013-09-04 00:02:00,3.7,-8.4,29.26,North,0,0.0,0.0,56,0.00,,---,0.00,VWS V14.01,2013-09-04 04:02:00,
2013-09-04 00:03:00,3.7,-8.4,29.26,North,0,0.0,0.0,56,0.00,,---,0.00,VWS V14.01,2013-09-04 04:03:00,
2013-09-04 00:07:00,3.6,-8.6,29.26,North,0,0.0,0.0,56,0.00,,---,0.00,VWS V14.01,2013-09-04 04:07:00,
2013-09-04 00:11:00,3.6,-8.6,29.26,North,0,0.0,0.0,56,0.00,,---,0.00,VWS V14.01,2013-09-04 04:11:00,
2013-09-04 00:16:00,3.2,-8.9,29.26,North,0,0.0,0.0,56,0.00,,---,0.00,VWS V14.01,2013-09-04 04:16:00,
2013-09-04 00:21:00,3.2,-8.9,29.29,North,0,0.0,0.0,56,0.00,,---,0.00,VWS V14.01,2013-09-04 04:21:00,
2013-09-04 00:26:00,3.0,-9.1,29.29,North,0,0.0,0.0,56,0.00,,---,0.00,VWS V14.01,2013-09-04 04:26:00,
2013-09-04 00:31:00,2.8,-9.3,29.29,North,0,0.0,0.0,56,0.00,,---,0.00,VWS V14.01,2013-09-04 04:31:00,
2013-09-04 00:36:00,2.8,-9.3,29.26,North,0,0.0,0.0,56,0.00,,---,0.00,VWS V14.01,2013-09-04 04:36:00,
2013-09-04 00:42:00,2.7,-9.5,29.26,North,0,0.0,0.0,56,0.00,,---,0.00,VWS V14.01,2013-09-04 04:42:00,
2013-09-04 00:48:00,2.5,-9.6,29.26,North,0,0.0,0.0,56,0.00,,---,0.00,VWS V14.01,2013-09-04 04:48:00,
2013-09-04 00:53:00,2.3,-9.8,29.26,North,0,0.0,0.0,56,0.00,,---,0.00,VWS V14.01,2013-09-04 04:53:00,
2013-09-04 00:58:00,2.1,-10.0,29.26,North,0,0.0,0.0,56,0.00,,---,0.00,VWS V14.01,2013-09-04 04:58:00,
2013-09-04 01:03:00,1.9,-10.1,29.26,North,0,0.0,0.0,56,0.00,,---,0.00,VWS V14.01,2013-09-04 05:03:00,
2013-09-04 01:08:00,1.8,-10.3,29.26,North,0,0.0,0.0,56,0.00,,---,0.00,VWS V14.01,2013-09-04 05:08:00,
2013-09-04 01:13:00,1.6,-10.5,29.26,North,0,0.0,0.0,56,0.00,,---,0.00,VWS V14.01,2013-09-04 05:13:00,
2013-09-04 01:18:00,1.6,-10.5,29.26,North,0,0.0,0.0,56,0.00,,---,0.00,VWS V14.01,2013-09-04 05:18:00,
2013-09-04 01:23:00,1.4,-10.6,29.29,North,0,0.0,0.0,56,0.00,,---,0.00,VWS V14.01,2013-09-04 05:23:00,
2013-09-04 01:28:00,1.9,-10.1,29.29,North,0,0.0,0.0,56,0.00,,---,0.00,VWS V14.01,2013-09-04 05:28:00,
2013-09-04 01:33:00,1.9,-10.1,29.29,North,0,0.0,0.0,56,0.00,,---,0.00,VWS V14.01,2013-09-04 05:33:00,
2013-09-04 01:38:00,2.7,-9.5,29.29,North,0,0.0,0.0,56,0.00,,---,0.00,VWS V14.01,2013-09-04 05:38:00,
2013-09-04 01:43:00,3.0,-9.1,29.29,North,0,0.0,0.0,56,0.00,,---,0.00,VWS V14.01,2013-09-04 05:43:00,
2013-09-04 01:48:00,3.6,-8.6,29.29,North,0,0.0,0.0,56,0.00,,---,0.00,VWS V14.01,2013-09-04 05:48:00,
2013-09-04 01:53:00,4.1,-8.1,29.29,North,0,0.0,0.0,56,0.00,,---,0.00,VWS V14.01,2013-09-04 05:53:00,
2013-09-04 01:58:00,4.6,-7.6,29.29,North,0,0.0,0.0,56,0.00,,---,0.00,VWS V14.01,2013-09-04 05:58:00,
2013-09-04 02:03:00,5.0,-7.3,29.29,North,0,0.0,0.0,56,0.00,,---,0.00,VWS V14.01,2013-09-04 06:03:00,
2013-09-04 02:08:00,5.5,-6.8,29.29,North,0,0.0,0.0,56,0.00,,---,0.00,VWS V14.01,2013-09-04 06:08:00,
2013-09-04 02:13:00,5.7,-6.6,29.29,North,0,0.0,0.0,56,0.00,,---,0.00,VWS V14.01,2013-09-04 06:13:00,
2013-09-04 02:18:00,6.1,-6.2,29.29,North,0,0.0,0.0,56,0.00,,---,0.00,VWS V14.01,2013-09-04 06:18:00,
2013-09-04 02:23:00,6.4,-5.9,29.29,North,0,0.0,0.0,56,0.00,,---,0.00,VWS V14.01,2013-09-04 06:23:00,
2013-09-04 02:28:00,6.8,-5.6,29.29,North,0,0.0,0.0,56,0.00,,---,0.00,VWS V14.01,2013-09-04 06:28:00,
2013-09-04 02:33:00,7.2,-5.2,29.29,North,0,0.0,0.0,56,0.00,,---,0.00,VWS V14.01,2013-09-04 06:33:00,
2013-09-04 02:38:00,7.5,-4.9,29.32,North,0,0.0,0.0,56,0.00,,---,0.00,VWS V14.01,2013-09-04 06:38:00,
2013-09-04 02:43:00,7.7,-4.7,29.32,North,0,0.0,0.0,56,0.00,,---,0.00,VWS V14.01,2013-09-04 06:43:00,
2013-09-04 02:48:00,7.9,-4.6,29.32,North,0,0.0,0.0,56,0.00,,---,0.00,VWS V14.01,2013-09-04 06:48:00,
2013-09-04 02:53:00,8.2,-4.2,29.29,North,0,0.0,0.0,56,0.00,,---,0.00,VWS V14.01,2013-09-04 06:53:00,
2013-09-04 02:58:00,8.6,-3.9,29.29,North,0,0.0,0.0,56,0.00,,---,0.00,VWS V14.01,2013-09-04 06:58:00,
2013-09-04 03:03:00,8.8,-3.7,29.29,North,0,0.0,0.0,56,0.00,,---,0.00,VWS V14.01,2013-09-04 07:03:00,
2013-09-04 03:08:00,9.1,-3.4,29.29,North,0,0.0,0.0,56,0.00,,---,0.00,VWS V14.01,2013-09-04 07:08:00,
2013-09-04 03:14:00,9.5,-3.0,29.29,North,0,0.0,0.0,56,0.00,,---,0.00,VWS V14.01,2013-09-04 07:14:00,
2013-09-04 03:19:00,9.7,-2.8,29.29,North,0,0.0,0.0,56,0.00,,---,0.00,VWS V14.01,2013-09-04 07:19:00,
2013-09-04 03:24:00,10.0,-2.5,29.29,North,0,0.0,0.0,56,0.00,,---,0.00,VWS V14.01,2013-09-04 07:24:00,
2013-09-04 03:29:00,10.2,-2.3,29.29,North,0,0.0,0.0,56,0.00,,---,0.00,VWS V14.01,2013-09-04 07:29:00,
2013-09-04 03:35:00,10.6,-2.0,29.29,North,0,0.0,0.0,56,0.00,,---,0.00,VWS V14.01,2013-09-04 07:35:00,
2013-09-04 03:40:00,10.8,-1.8,29.29,North,0,0.0,0.0,56,0.00,,---,0.00,VWS V14.01,2013-09-04 07:40:00,
2013-09-04 03:46:00,11.1,-1.5,29.29,North,0,0.0,0.0,56,0.00,,---,0.00,VWS V14.01,2013-09-04 07:46:00,
2013-09-04 03:51:00,11.3,-1.3,29.29,North,0,0.0,0.0,56,0.00,,---,0.00,VWS V14.01,2013-09-04 07:51:00,
2013-09-04 03:56:00,10.9,-1.7,29.29,North,0,0.0,0.0,56,0.00,,---,0.00,VWS V14.01,2013-09-04 07:56:00,
2013-09-04 04:01:00,10.4,-2.2,29.29,North,0,0.0,0.0,56,0.00,,---,0.00,VWS V14.01,2013-09-04 08:01:00,
2013-09-04 04:06:00,10.0,-2.5,29.29,North,0,0.0,0.0,56,0.00,,---,0.00,VWS V14.01,2013-09-04 08:06:00,
2013-09-04 04:11:00,9.3,-3.2,29.32,North,0,0.0,0.0,56,0.00,,---,0.00,VWS V14.01,2013-09-04 08:11:00,
2013-09-04 04:16:00,9.1,-3.4,29.32,North,0,0.0,0.0,56,0.00,,---,0.00,VWS V14.01,2013-09-04 08:16:00,
2013-09-04 04:21:00,8.4,-4.0,29.32,North,0,0.0,0.0,56,0.00,,---,0.00,VWS V14.01,2013-09-04 08:21:00,
2013-09-04 04:26:00,7.9,-4.6,29.32,North,0,0.0,0.0,56,0.00,,---,0.00,VWS V14.01,2013-09-04 08:26:00,
2013-09-04 04:31:00,7.5,-4.9,29.32,North,0,0.0,0.0,56,0.00,,---,0.00,VWS V14.01,2013-09-04 08:31:00,
2013-09-04 04:37:00,7.0,-5.4,29.32,North,0,0.0,0.0,56,0.00,,---,0.00,VWS V14.01,2013-09-04 08:37:00,
2013-09-04 04:42:00,6.3,-6.1,29.32,North,0,0.0,0.0,56,0.00,,---,0.00,VWS V14.01,2013-09-04 08:42:00,
2013-09-04 04:47:00,6.1,-6.2,29.32,North,0,0.0,0.0,56,0.00,,---,0.00,VWS V14.01,2013-09-04 08:47:00,
2013-09-04 04:52:00,5.7,-6.6,29.32,North,0,0.0,0.0,56,0.00,,---,0.00,VWS V14.01,2013-09-04 08:52:00,
2013-09-04 04:57:00,5.4,-6.9,29.32,North,0,0.0,0.0,56,0.00,,---,0.00,VWS V14.01,2013-09-04 08:57:00,
2013-09-04 05:02:00,5.0,-7.3,29.32,North,0,0.0,0.0,56,0.00,,---,0.00,VWS V14.01,2013-09-04 09:02:00,
2013-09-04 05:07:00,4.6,-7.6,29.32,North,0,0.0,0.0,56,0.00,,---,0.00,VWS V14.01,2013-09-04 09:07:00,
2013-09-04 05:12:00,4.3,-7.9,29.32,North,0,0.0,0.0,56,0.00,,---,0.00,VWS V14.01,2013-09-04 09:12:00,
2013-09-04 05:18:00,4.1,-8.1,29.32,North,0,0.0,0.0,56,0.00,,---,0.00,VWS V14.01,2013-09-04 09:18:00,
2013-09-04 05:23:00,3.7,-8.4,29.32,North,0,0.0,0.0,56,0.00,,---,0.00,VWS V14.01,2013-09-04 09:23:00,
2013-09-04 05:28:00,3.6,-8.6,29.32,North,0,0.0,0.0,56,0.00,,---,0.00,VWS V14.01,2013-09-04 09:28:00,
2013-09-04 05:33:00,3.2,-8.9,29.32,North,0,0.0,0.0,56,0.00,,---,0.00,VWS V14.01,2013-09-04 09:33:00,
2013-09-04 05:38:00,3.0,-9.1,29.32,North,0,0.0,0.0,56,0.00,,---,0.00,VWS V14.01,2013-09-04 09:38:00,
2013-09-04 05:43:00,2.8,-9.3,29.32,North,0,0.0,0.0,56,0.00,,---,0.00,VWS V14.01,2013-09-04 09:43:00,
2013-09-04 05:48:00,2.7,-9.5,29.32,North,0,0.0,0.0,56,0.00,,---,0.00,VWS V14.01,2013-09-04 09:48:00,
2013-09-04 05:53:00,2.5,-9.6,29.32,North,0,0.0,0.0,56,0.00,,---,0.00,VWS V14.01,2013-09-04 09:53:00,
2013-09-04 05:58:00,2.3,-9.8,29.32,North,0,0.0,0.0,56,0.00,,---,0.00,VWS V14.01,2013-09-04 09:58:00,
2013-09-04 06:03:00,2.1,-10.0,29.32,North,0,0.0,0.0,56,0.00,,---,0.00,VWS V14.01,2013-09-04 10:03:00,
2013-09-04 06:08:00,1.9,-10.1,29.32,North,0,0.0,0.0,56,0.00,,---,0.00,VWS V14.01,2013-09-04 10:08:00,
2013-09-04 06:13:00,1.6,-10.5,29.32,North,0,0.0,0.0,56,0.00,,---,0.00,VWS V14.01,2013-09-04 10:13:00,
2013-09-04 06:19:00,1.9,-10.1,29.32,North,0,0.0,0.0,56,0.00,,---,0.00,VWS V14.01,2013-09-04 10:19:00,
2013-09-04 06:25:00,2.8,-9.3,29.32,North,0,0.0,0.0,56,0.00,,---,0.00,VWS V14.01,2013-09-04 10:25:00,
2013-09-04 06:30:00,3.2,-8.9,29.32,North,0,0.0,0.0,56,0.00,,---,0.00,VWS V14.01,2013-09-04 10:30:00,
2013-09-04 06:35:00,3.7,-8.4,29.35,North,0,0.0,0.0,56,0.00,,---,0.00,VWS V14.01,2013-09-04 10:35:00,
2013-09-04 06:40:00,4.3,-7.9,29.35,North,0,0.0,0.0,56,0.00,,---,0.00,VWS V14.01,2013-09-04 10:40:00,
2013-09-04 06:45:00,4.5,-7.8,29.35,North,0,0.0,0.0,56,0.00,,---,0.00,VWS V14.01,2013-09-04 10:45:00,
2013-09-04 06:50:00,5.0,-7.3,29.35,North,0,0.0,0.0,56,0.00,,---,0.00,VWS V14.01,2013-09-04 10:50:00,
2013-09-04 06:55:00,5.5,-6.8,29.35,North,0,0.0,0.0,56,0.00,,---,0.00,VWS V14.01,2013-09-04 10:55:00,
2013-09-04 07:00:00,5.9,-6.4,29.35,North,0,0.0,0.0,56,0.00,,---,0.00,VWS V14.01,2013-09-04 11:00:00,
2013-09-04 07:05:00,6.3,-6.1,29.35,North,0,0.0,0.0,56,0.00,,---,0.00,VWS V14.01,2013-09-04 11:05:00,
2013-09-04 07:11:00,6.6,-5.7,29.35,North,0,0.0,0.0,56,0.00,,---,0.00,VWS V14.01,2013-09-04 11:11:00,
2013-09-04 07:16:00,7.0,-5.4,29.35,North,0,0.0,0.0,56,0.00,,---,0.00,VWS V14.01,2013-09-04 11:16:00,
2013-09-04 07:21:00,7.2,-5.2,29.35,North,0,0.0,0.0,56,0.00,,---,0.00,VWS V14.01,2013-09-04 11:21:00,
2013-09-04 07:26:00,7.5,-4.9,29.35,North,0,0.0,0.0,56,0.00,,---,0.00,VWS V14.01,2013-09-04 11:26:00,
2013-09-04 07:31:00,7.9,-4.6,29.35,North,0,0.0,0.0,56,0.00,,---,0.00,VWS V14.01,2013-09-04 11:31:00,
2013-09-04 07:36:00,8.1,-4.4,29.35,North,0,0.0,0.0,56,0.00,,---,0.00,VWS V14.01,2013-09-04 11:36:00,
2013-09-04 07:41:00,8.4,-4.0,29.35,North,0,0.0,0.0,56,0.00,,---,0.00,VWS V14.01,2013-09-04 11:41:00,
2013-09-04 07:46:00,8.6,-3.9,29.35,North,0,0.0,0.0,56,0.00,,---,0.00,VWS V14.01,2013-09-04 11:46:00,
2013-09-04 07:51:00,9.0,-3.5,29.35,North,0,0.0,0.0,56,0.00,,---,0.00,VWS V14.01,2013-09-04 11:51:00,
2013-09-04 07:56:00,9.3,-3.2,29.35,North,0,0.0,0.0,56,0.00,,---,0.00,VWS V14.01,2013-09-04 11:56:00,
2013-09-04 08:01:00,9.3,-3.2,29.35,North,0,0.0,0.0,56,0.00,,---,0.00,VWS V14.01,2013-09-04 12:01:00,
2013-09-04 08:06:00,9.7,-2.8,29.35,North,0,0.0,0.0,56,0.00,,---,0.00,VWS V14.01,2013-09-04 12:06:00,
2013-09-04 08:11:00,10.0,-2.5,29.35,North,0,0.0,0.0,56,0.00,,---,0.00,VWS V14.01,2013-09-04 12:11:00,
2013-09-04 08:16:00,10.2,-2.3,29.35,North,0,0.0,0.0,56,0.00,,---,0.00,VWS V14.01,2013-09-04 12:16:00,
2013-09-04 08:21:00,10.4,-2.2,29.38,North,0,0.0,0.0,56,0.00,,---,0.00,VWS V14.01,2013-09-04 12:21:00,
2013-09-04 08:26:00,10.8,-1.8,29.38,North,0,0.0,0.0,56,0.00,,---,0.00,VWS V14.01,2013-09-04 12:26:00,
2013-09-04 08:32:00,10.9,-1.7,29.38,North,0,0.0,0.0,56,0.00,,---,0.00,VWS V14.01,2013-09-04 12:32:00,
2013-09-04 08:37:00,10.6,-2.0,29.38,North,0,0.0,0.0,56,0.00,,---,0.00,VWS V14.01,2013-09-04 12:37:00,
2013-09-04 08:42:00,10.2,-2.3,29.38,North,0,0.0,0.0,56,0.00,,---,0.00,VWS V14.01,2013-09-04 12:42:00,
2013-09-04 08:47:00,9.5,-3.0,29.38,North,0,0.0,0.0,56,0.00,,---,0.00,VWS V14.01,2013-09-04 12:47:00,
2013-09-04 08:52:00,9.3,-3.2,29.38,North,0,0.0,0.0,56,0.00,,---,0.00,VWS V14.01,2013-09-04 12:52:00,
2013-09-04 08:57:00,8.6,-3.9,29.38,North,0,0.0,0.0,56,0.00,,---,0.00,VWS V14.01,2013-09-04 12:57:00,
2013-09-04 09:02:00,8.1,-4.4,29.38,North,0,0.0,0.0,56,0.00,,---,0.00,VWS V14.01,2013-09-04 13:02:00,
2013-09-04 09:07:00,7.7,-4.7,29.38,North,0,0.0,0.0,56,0.00,,---,0.00,VWS V14.01,2013-09-04 13:07:00,
2013-09-04 09:12:00,7.2,-5.2,29.38,North,0,0.0,0.0,56,0.00,,---,0.00,VWS V14.01,2013-09-04 13:12:00,
2013-09-04 09:17:00,6.6,-5.7,29.38,North,0,0.0,0.0,56,0.00,,---,0.00,VWS V14.01,2013-09-04 13:17:00,
2013-09-04 09:22:00,6.6,-5.7,29.38,North,0,0.0,0.0,56,0.00,,---,0.00,VWS V14.01,2013-09-04 13:22:00,
2013-09-04 09:27:00,6.6,-5.7,29.38,North,0,0.0,0.0,56,0.00,,---,0.00,VWS V14.01,2013-09-04 13:27:00,
2013-09-04 09:32:00,5.5,-6.8,29.38,North,0,0.0,0.0,56,0.00,,---,0.00,VWS V14.01,2013-09-04 13:32:00,
2013-09-04 09:38:00,5.0,-7.3,29.38,North,0,0.0,0.0,56,0.00,,---,0.00,VWS V14.01,2013-09-04 13:38:00,
2013-09-04 09:43:00,4.8,-7.4,29.38,North,0,0.0,0.0,56,0.00,,---,0.00,VWS V14.01,2013-09-04 13:43:00,
2013-09-04 09:49:00,4.5,-7.8,29.38,North,0,0.0,0.0,56,0.00,,---,0.00,VWS V14.01,2013-09-04 13:49:00,
2013-09-04 09:54:00,4.1,-8.1,29.38,North,0,0.0,0.0,56,0.00,,---,0.00,VWS V14.01,2013-09-04 13:54:00,
2013-09-04 09:59:00,3.7,-8.4,29.38,North,0,0.0,0.0,56,0.00,,---,0.00,VWS V14.01,2013-09-04 13:59:00,
2013-09-04 10:05:00,3.4,-8.8,29.38,North,0,0.0,0.0,56,0.00,,---,0.00,VWS V14.01,2013-09-04 14:05:00,
2013-09-04 10:10:00,3.2,-8.9,29.38,North,0,0.0,0.0,56,0.00,,---,0.00,VWS V14.01,2013-09-04 14:10:00,
2013-09-04 10:15:00,3.0,-9.1,29.38,North,0,0.0,0.0,56,0.00,,---,0.00,VWS V14.01,2013-09-04 14:15:00,
2013-09-04 10:20:00,2.8,-9.3,29.38,North,0,0.0,0.0,56,0.00,,---,0.00,VWS V14.01,2013-09-04 14:20:00,
2013-09-04 10:25:00,2.7,-9.5,29.38,North,0,0.0,0.0,56,0.00,,---,0.00,VWS V14.01,2013-09-04 14:25:00,
2013-09-04 10:30:00,2.5,-9.6,29.38,North,0,0.0,0.0,56,0.00,,---,0.00,VWS V14.01,2013-09-04 14:30:00,
2013-09-04 10:35:00,2.5,-9.6,29.38,North,0,0.0,0.0,56,0.00,,---,0.00,VWS V14.01,2013-09-04 14:35:00,
2013-09-04 10:40:00,2.5,-9.6,29.38,North,0,0.0,0.0,56,0.00,,---,0.00,VWS V14.01,2013-09-04 14:40:00,
2013-09-04 10:45:00,2.5,-9.6,29.38,North,0,0.0,0.0,56,0.00,,---,0.00,VWS V14.01,2013-09-04 14:45:00,
2013-09-04 10:50:00,2.5,-9.6,29.35,North,0,0.0,0.0,56,0.00,,---,0.00,VWS V14.01,2013-09-04 14:50:00,
2013-09-04 10:55:00,2.5,-9.6,29.35,North,0,0.0,0.0,56,0.00,,---,0.00,VWS V14.01,2013-09-04 14:55:00,
2013-09-04 11:00:00,2.5,-9.6,29.35,North,0,0.0,0.0,56,0.00,,---,0.00,VWS V14.01,2013-09-04 15:00:00,
2013-09-04 11:05:00,2.5,-9.6,29.35,North,0,0.0,0.0,56,0.00,,---,0.00,VWS V14.01,2013-09-04 15:05:00,
2013-09-04 11:11:00,2.5,-9.6,29.35,North,0,0.0,0.0,56,0.00,,---,0.00,VWS V14.01,2013-09-04 15:11:00,
2013-09-04 11:17:00,4.3,-7.9,29.35,North,0,0.0,0.0,56,0.00,,---,0.00,VWS V14.01,2013-09-04 15:17:00,
2013-09-04 11:23:00,4.5,-7.8,29.35,North,0,0.0,0.0,56,0.00,,---,0.00,VWS V14.01,2013-09-04 15:23:00,
2013-09-04 11:28:00,4.5,-7.8,29.35,North,0,0.0,0.0,56,0.00,,---,0.00,VWS V14.01,2013-09-04 15:28:00,
2013-09-04 11:33:00,4.5,-7.8,29.35,North,0,0.0,0.0,56,0.00,,---,0.00,VWS V14.01,2013-09-04 15:33:00,
2013-09-04 11:38:00,4.5,-7.8,29.38,North,0,0.0,0.0,56,0.00,,---,0.00,VWS V14.01,2013-09-04 15:38:00,
2013-09-04 11:43:00,6.4,-5.9,29.38,North,0,0.0,0.0,56,0.00,,---,0.00,VWS V14.01,2013-09-04 15:43:00,
2013-09-04 11:48:00,6.4,-5.9,29.38,North,0,0.0,0.0,56,0.00,,---,0.00,VWS V14.01,2013-09-04 15:48:00,
2013-09-04 11:54:00,7.2,-5.2,29.35,North,0,0.0,0.0,56,0.00,,---,0.00,VWS V14.01,2013-09-04 15:54:00,
2013-09-04 11:59:00,7.2,-5.2,29.35,North,0,0.0,0.0,56,0.00,,---,0.00,VWS V14.01,2013-09-04 15:59:00,
2013-09-04 12:04:00,7.2,-5.2,29.35,North,0,0.0,0.0,56,0.00,,---,0.00,VWS V14.01,2013-09-04 16:04:00,
2013-09-04 12:09:00,8.1,-4.4,29.35,North,0,0.0,0.0,56,0.00,,---,0.00,VWS V14.01,2013-09-04 16:09:00,
2013-09-04 12:14:00,8.4,-4.0,29.35,North,0,0.0,0.0,56,0.00,,---,0.00,VWS V14.01,2013-09-04 16:14:00,
2013-09-04 12:19:00,8.4,-4.0,29.35,North,0,0.0,0.0,56,0.00,,---,0.00,VWS V14.01,2013-09-04 16:19:00,
2013-09-04 12:24:00,8.4,-4.0,29.35,North,0,0.0,0.0,56,0.00,,---,0.00,VWS V14.01,2013-09-04 16:24:00,
2013-09-04 12:29:00,8.4,-4.0,29.35,North,0,0.0,0.0,56,0.00,,---,0.00,VWS V14.01,2013-09-04 16:29:00,
2013-09-04 12:34:00,8.4,-4.0,29.35,North,0,0.0,0.0,56,0.00,,---,0.00,VWS V14.01,2013-09-04 16:34:00,
2013-09-04 12:39:00,8.4,-4.0,29.35,North,0,0.0,0.0,56,0.00,,---,0.00,VWS V14.01,2013-09-04 16:39:00,
2013-09-04 12:44:00,10.0,-2.5,29.35,North,0,0.0,0.0,56,0.00,,---,0.00,VWS V14.01,2013-09-04 16:44:00,
2013-09-04 12:49:00,10.0,-2.5,29.35,North,0,0.0,0.0,56,0.00,,---,0.00,VWS V14.01,2013-09-04 16:49:00,
2013-09-04 12:54:00,10.0,-2.5,29.35,North,0,0.0,0.0,56,0.00,,---,0.00,VWS V14.01,2013-09-04 16:54:00,
2013-09-04 12:59:00,10.0,-2.5,29.35,North,0,0.0,0.0,56,0.00,,---,0.00,VWS V14.01,2013-09-04 16:59:00,
2013-09-04 13:04:00,10.0,-2.5,29.35,North,0,0.0,0.0,56,0.00,,---,0.00,VWS V14.01,2013-09-04 17:04:00,
2013-09-04 13:09:00,10.2,-2.3,29.35,North,0,0.0,0.0,56,0.00,,---,0.00,VWS V14.01,2013-09-04 17:09:00,
2013-09-04 13:14:00,9.5,-3.0,29.35,North,0,0.0,0.0,56,0.00,,---,0.00,VWS V14.01,2013-09-04 17:14:00,
2013-09-04 13:19:00,9.1,-3.4,29.35,North,0,0.0,0.0,56,0.00,,---,0.00,VWS V14.01,2013-09-04 17:19:00,
2013-09-04 13:24:00,9.1,-3.4,29.35,North,0,0.0,0.0,56,0.00,,---,0.00,VWS V14.01,2013-09-04 17:24:00,
2013-09-04 13:29:00,8.4,-4.0,29.35,North,0,0.0,0.0,56,0.00,,---,0.00,VWS V14.01,2013-09-04 17:29:00,
2013-09-04 13:34:00,7.9,-4.6,29.35,North,0,0.0,0.0,56,0.00,,---,0.00,VWS V14.01,2013-09-04 17:34:00,
2013-09-04 13:40:00,7.5,-4.9,29.35,North,0,0.0,0.0,56,0.00,,---,0.00,VWS V14.01,2013-09-04 17:40:00,
2013-09-04 13:45:00,6.8,-5.6,29.35,North,0,0.0,0.0,56,0.00,,---,0.00,VWS V14.01,2013-09-04 17:45:00,
2013-09-04 13:50:00,6.4,-5.9,29.35,North,0,0.0,0.0,56,0.00,,---,0.00,VWS V14.01,2013-09-04 17:50:00,
2013-09-04 13:55:00,6.4,-5.9,29.35,North,0,0.0,0.0,56,0.00,,---,0.00,VWS V14.01,2013-09-04 17:55:00,
2013-09-04 14:00:00,5.7,-6.6,29.35,North,0,0.0,0.0,56,0.00,,---,0.00,VWS V14.01,2013-09-04 18:00:00,
2013-09-04 14:05:00,5.5,-6.8,29.35,North,0,0.0,0.0,56,0.00,,---,0.00,VWS V14.01,2013-09-04 18:05:00,
2013-09-04 14:10:00,5.2,-7.1,29.35,North,0,0.0,0.0,56,0.00,,---,0.00,VWS V14.01,2013-09-04 18:10:00,
2013-09-04 14:15:00,5.0,-7.3,29.35,North,0,0.0,0.0,56,0.00,,---,0.00,VWS V14.01,2013-09-04 18:15:00,
2013-09-04 14:20:00,14.4,1.2,29.35,North,0,0.0,0.0,55,0.00,,---,0.00,VWS V14.01,2013-09-04 18:20:00,
2013-09-04 14:25:00,14.4,1.2,29.35,North,0,0.0,0.0,55,0.00,,---,0.00,VWS V14.01,2013-09-04 18:25:00,
2013-09-04 14:30:00,14.4,1.2,29.35,North,0,0.0,0.0,55,0.00,,---,0.00,VWS V14.01,2013-09-04 18:30:00,
2013-09-04 14:35:00,14.4,1.2,29.32,North,0,0.0,0.0,55,0.00,,---,0.00,VWS V14.01,2013-09-04 18:35:00,
2013-09-04 14:40:00,14.4,1.2,29.32,North,0,0.0,0.0,55,0.00,,---,0.00,VWS V14.01,2013-09-04 18:40:00,
2013-09-04 14:45:00,15.3,3.9,29.32,North,0,0.0,0.0,60,0.00,,---,0.00,VWS V14.01,2013-09-04 18:45:00,
2013-09-04 14:50:00,15.3,3.9,29.32,North,0,0.0,0.0,60,0.00,,---,0.00,VWS V14.01,2013-09-04 18:50:00,
2013-09-04 14:55:00,15.3,3.9,29.32,North,0,0.0,0.0,60,0.00,,---,0.00,VWS V14.01,2013-09-04 18:55:00,
2013-09-04 15:00:00,15.3,3.9,29.32,North,0,0.0,0.0,60,0.00,,---,0.00,VWS V14.01,2013-09-04 19:00:00,
2013-09-04 15:05:00,15.3,3.9,29.32,North,0,0.0,0.0,60,0.00,,---,0.00,VWS V14.01,2013-09-04 19:05:00,
2013-09-04 15:10:00,15.3,3.9,29.32,North,0,0.0,0.0,60,0.00,,---,0.00,VWS V14.01,2013-09-04 19:10:00,
2013-09-04 15:15:00,15.3,3.9,29.32,North,0,0.0,0.0,60,0.00,,---,0.00,VWS V14.01,2013-09-04 19:15:00,
2013-09-04 15:20:00,15.3,3.9,29.32,North,0,0.0,0.0,60,0.00,,---,0.00,VWS V14.01,2013-09-04 19:20:00,
2013-09-04 15:25:00,15.3,3.9,29.32,North,0,0.0,0.0,60,0.00,,---,0.00,VWS V14.01,2013-09-04 19:25:00,
2013-09-04 15:31:00,15.3,3.9,29.32,North,0,0.0,0.0,60,0.00,,---,0.00,VWS V14.01,2013-09-04 19:31:00,
2013-09-04 15:36:00,15.3,3.9,29.32,North,0,0.0,0.0,60,0.00,,---,0.00,VWS V14.01,2013-09-04 19:36:00,
2013-09-04 15:42:00,15.3,3.9,29.32,North,0,0.0,0.0,60,0.00,,---,0.00,VWS V14.01,2013-09-04 19:42:00,
2013-09-04 15:47:00,6.3,-5.0,29.32,North,0,0.0,0.0,59,0.00,,---,0.00,VWS V14.01,2013-09-04 19:47:00,
2013-09-04 15:53:00,5.5,-5.7,29.32,North,0,0.0,0.0,59,0.00,,---,0.00,VWS V14.01,2013-09-04 19:53:00,
2013-09-04 15:58:00,5.5,-5.7,29.32,North,0,0.0,0.0,59,0.00,,---,0.00,VWS V14.01,2013-09-04 19:58:00,
2013-09-04 16:03:00,5.5,-5.7,29.32,North,0,0.0,0.0,59,0.00,,---,0.00,VWS V14.01,2013-09-04 20:03:00,
2013-09-04 16:08:00,4.8,-6.3,29.32,North,0,0.0,0.0,59,0.00,,---,0.00,VWS V14.01,2013-09-04 20:08:00,
2013-09-04 16:13:00,4.8,-6.3,29.32,North,0,0.0,0.0,59,0.00,,---,0.00,VWS V14.01,2013-09-04 20:13:00,
2013-09-04 16:18:00,4.8,-6.3,29.32,North,0,0.0,0.0,59,0.00,,---,0.00,VWS V14.01,2013-09-04 20:18:00,
2013-09-04 16:23:00,4.8,-6.3,29.32,North,0,0.0,0.0,59,0.00,,---,0.00,VWS V14.01,2013-09-04 20:23:00,
2013-09-04 16:28:00,4.8,-6.3,29.32,North,0,0.0,0.0,59,0.00,,---,0.00,VWS V14.01,2013-09-04 20:28:00,
2013-09-04 16:33:00,4.8,-6.3,29.32,North,0,0.0,0.0,59,0.00,,---,0.00,VWS V14.01,2013-09-04 20:33:00,
2013-09-04 16:38:00,4.8,-6.3,29.32,North,0,0.0,0.0,59,0.00,,---,0.00,VWS V14.01,2013-09-04 20:38:00,
2013-09-04 16:43:00,4.8,-6.3,29.32,North,0,0.0,0.0,59,0.00,,---,0.00,VWS V14.01,2013-09-04 20:43:00,
2013-09-04 16:48:00,4.8,-6.3,29.32,North,0,0.0,0.0,59,0.00,,---,0.00,VWS V14.01,2013-09-04 20:48:00,
2013-09-04 16:53:00,4.8,-6.3,29.32,North,0,0.0,0.0,59,0.00,,---,0.00,VWS V14.01,2013-09-04 20:53:00,
2013-09-04 16:58:00,4.8,-6.3,29.32,North,0,0.0,0.0,59,0.00,,---,0.00,VWS V14.01,2013-09-04 20:58:00,
2013-09-04 17:03:00,4.8,-6.3,29.32,North,0,0.0,0.0,59,0.00,,---,0.00,VWS V14.01,2013-09-04 21:03:00,
2013-09-04 17:08:00,4.8,-6.3,29.32,North,0,0.0,0.0,59,0.00,,---,0.00,VWS V14.01,2013-09-04 21:08:00,
2013-09-04 17:13:00,4.8,-6.3,29.32,North,0,0.0,0.0,59,0.00,,---,0.00,VWS V14.01,2013-09-04 21:13:00,
2013-09-04 17:18:00,4.8,-6.3,29.32,North,0,0.0,0.0,59,0.00,,---,0.00,VWS V14.01,2013-09-04 21:18:00,
2013-09-04 17:23:00,4.8,-6.3,29.32,North,0,0.0,0.0,59,0.00,,---,0.00,VWS V14.01,2013-09-04 21:23:00,
2013-09-04 17:28:00,4.8,-6.3,29.32,North,0,0.0,0.0,59,0.00,,---,0.00,VWS V14.01,2013-09-04 21:28:00,
2013-09-04 17:33:00,4.8,-6.3,29.32,North,0,0.0,0.0,59,0.00,,---,0.00,VWS V14.01,2013-09-04 21:33:00,
2013-09-04 17:38:00,4.8,-6.3,29.32,North,0,0.0,0.0,59,0.00,,---,0.00,VWS V14.01,2013-09-04 21:38:00,
2013-09-04 17:43:00,4.8,-6.3,29.32,North,0,0.0,0.0,59,0.00,,---,0.00,VWS V14.01,2013-09-04 21:43:00,
2013-09-04 17:48:00,4.8,-6.3,29.32,North,0,0.0,0.0,59,0.00,,---,0.00,VWS V14.01,2013-09-04 21:48:00,
2013-09-04 17:53:00,4.8,-6.3,29.32,North,0,0.0,0.0,59,0.00,,---,0.00,VWS V14.01,2013-09-04 21:53:00,